EW2835 Weather Reports


Display with metric or nautical units.
time (UTC)temp
F
wind
direction
speed
MPH
gust
MPH
rain 1hr
in
rain 24hr
in
rain mn
in
humidity
%
barometer
mb
20260502231511 50 172 0.0 0.0 0.00 0.00 0.00 78 1014.7
20260502230010 50 172 0.0 1.0 0.00 0.00 0.00 77 1014.8
20260502224508 51 172 0.0 1.0 0.00 0.00 0.00 77 1015.0
20260502223004 51 172 0.0 0.0 0.00 0.00 0.00 76 1015.0
20260502221502 52 172 0.0 0.0 0.00 0.00 0.00 76 1015.1
20260502220105 52 172 0.0 1.0 0.00 0.00 0.00 75 1015.1
20260502214607 52 172 0.0 0.0 0.00 0.00 0.00 74 1015.2
20260502213057 53 172 0.0 0.0 0.00 0.00 0.00 73 1015.3
20260502211559 54 172 0.0 0.0 0.00 0.00 0.00 72 1015.4
20260502210054 55 172 0.0 0.0 0.00 0.00 0.00 70 1015.5
20260502204554 55 172 0.0 0.0 0.00 0.00 0.00 69 1015.6
20260502203058 56 172 0.0 0.0 0.00 0.00 0.00 67 1015.6
20260502201552 57 172 0.0 0.0 0.00 0.00 0.00 66 1015.7
20260502200050 58 172 0.0 0.0 0.00 0.00 0.00 64 1015.8
20260502194549 59 172 0.0 0.0 0.00 0.00 0.00 62 1016.0
20260502193149 60 172 0.0 0.0 0.00 0.00 0.00 60 1016.0
20260502191548 62 172 0.0 0.0 0.00 0.00 0.00 58 1016.0
20260502190051 63 172 0.0 0.0 0.00 0.00 0.00 55 1016.0
20260502184548 65 172 0.0 0.0 0.00 0.00 0.00 51 1016.1
20260502183047 67 172 0.0 0.0 0.00 0.00 0.00 50 1016.0
20260502181545 69 172 0.0 0.0 0.00 0.00 0.00 46 1015.9
20260502163038 76 146 3.0 13.0 0.00 0.00 0.00 30 1016.3
20260502151524 77 181 3.0 11.0 0.00 0.00 0.00 27 1017.3
20260502130107 78 259 4.0 11.0 0.20 0.20 0.20 30 1019.2
20260502123107 77 157 5.0 10.0 0.01 0.01 0.01 32 1019.7
20260502121600 81 236 4.0 13.0 0.01 0.01 0.01 33 1020.0
20260502120110 81 142 4.0 9.0 0.00 0.00 0.00 29 1020.1
20260502114557 82 224 6.0 12.0 0.00 0.00 0.00 28 1020.4
20260502113050 81 127 3.0 12.0 0.00 0.00 0.00 30 1020.5
20260502111551 81 194 5.0 13.0 0.00 0.00 0.00 30 1020.8
20260502110044 80 204 3.0 12.0 0.00 0.00 0.00 31 1021.0
20260502104548 79 117 4.0 13.0 0.00 0.00 0.00 31 1021.2
20260502103037 79 160 2.0 11.0 0.00 0.00 0.00 34 1021.3
20260502101534 80 133 4.0 11.0 0.00 0.00 0.00 31 1021.6
20260502091523 76 129 3.0 11.0 0.00 0.00 0.00 36 1022.1
20260502070040 65 195 3.0 7.0 0.00 0.00 0.00 53 1023.1
20260502064540 64 81 1.0 4.0 0.00 0.00 0.00 57 1023.1
20260502063031 61 157 1.0 4.0 0.00 0.00 0.00 64 1023.2
20260502061526 59 132 1.0 4.0 0.00 0.00 0.00 67 1023.3
20260502060021 57 132 0.0 4.0 0.00 0.00 0.00 69 1023.4
20260502054519 55 156 0.0 2.0 0.00 0.00 0.00 72 1023.4
20260502053011 52 162 0.0 2.0 0.00 0.00 0.00 75 1023.4
20260502051510 49 151 0.0 2.0 0.00 0.00 0.00 83 1023.5
20260502050002 47 148 0.0 1.0 0.00 0.00 0.00 87 1023.5
20260502044608 45 148 0.0 0.0 0.00 0.00 0.00 90 1023.5
20260502043106 43 148 0.0 0.0 0.00 0.00 0.00 92 1023.5
20260502041555 41 148 0.0 0.0 0.00 0.00 0.00 91 1023.5
20260502040053 41 148 0.0 0.0 0.00 0.00 0.00 91 1023.5
20260502034552 41 148 0.0 0.0 0.00 0.00 0.00 90 1023.5
20260502033053 41 148 0.0 0.0 0.00 0.00 0.00 90 1023.5
20260502031605 41 148 0.0 0.0 0.00 0.00 0.00 89 1023.6
20260502030046 42 148 0.0 0.0 0.00 0.00 0.00 89 1023.7
20260502024551 42 148 0.0 0.0 0.00 0.00 0.00 89 1023.8
20260502023042 42 148 0.0 0.0 0.00 0.00 0.00 88 1023.8
20260502021540 43 148 0.0 0.0 0.00 0.00 0.00 88 1023.8
20260502020041 43 148 0.0 0.0 0.00 0.00 0.00 87 1023.9
20260502014538 43 148 0.0 0.0 0.00 0.00 0.00 87 1023.9
20260502013034 44 148 0.0 0.0 0.00 0.00 0.00 86 1024.0
20260502011534 44 148 0.0 0.0 0.00 0.00 0.00 86 1024.1
20260502010029 44 148 0.0 0.0 0.00 0.00 0.00 85 1024.3
20260502004528 45 148 0.0 0.0 0.00 0.00 0.00 85 1024.3
20260502003025 45 148 0.0 0.0 0.00 0.00 0.00 85 1024.4
20260502001523 45 148 0.0 0.0 0.00 0.00 0.00 84 1024.5
20260502000022 46 148 0.0 0.0 0.00 0.00 0.00 83 1024.5
20260501234524 46 148 0.0 0.0 0.00 0.00 0.00 82 1024.6
20260501233017 47 148 0.0 0.0 0.00 0.00 0.00 82 1024.7